EW2997 Weather Reports


Display with metric or nautical units.
time (UTC)temp
F
wind
direction
speed
MPH
gust
MPH
rain 1hr
in
rain 24hr
in
rain mn
in
humidity
%
barometer
mb
20260510153140 65 104 4.0 4.0 0.00 0.01 0.01 75 1017.4
20260510150140 64 204 3.0 3.0 0.00 0.01 0.01 76 1017.4
20260510143136 62 192 2.0 2.0 0.00 0.01 0.01 76 1017.4
20260510140137 60 192 0.0 0.0 0.00 0.01 0.01 80 1016.7
20260510133132 61 198 0.0 0.0 0.00 0.01 0.01 79 1016.7
20260510130133 59 155 0.0 0.0 0.00 0.01 0.01 82 1016.7
20260510123128 57 210 0.0 0.0 0.00 0.00 0.00 85 1016.3
20260510120125 57 216 0.0 0.0 0.00 0.00 0.00 86 1016.0
20260510113122 52 179 0.0 0.0 0.00 0.00 0.00 92 1016.0
20260510110118 50 126 0.0 0.0 0.00 0.00 0.00 95 1015.2
20260510103113 48 176 0.0 0.0 0.00 0.00 0.00 96 1015.2
20260510100111 49 132 0.0 0.0 0.00 0.00 0.00 95 1014.9
20260510093107 51 186 0.0 0.0 0.00 0.00 0.00 93 1014.9
20260510090106 52 254 0.0 0.0 0.00 0.00 0.00 92 1014.9
20260510083101 51 64 2.0 2.0 0.00 0.00 0.00 94 1015.2
20260510080058 49 198 0.0 0.0 0.00 0.00 0.00 96 1013.9
20260510073056 50 181 0.0 0.0 0.00 0.00 0.00 95 1013.9
20260510070054 51 271 0.0 0.0 0.00 0.00 0.00 94 1013.9
20260510063051 53 260 0.0 0.0 0.00 0.00 0.00 93 1014.5
20260510060046 52 174 0.0 0.0 0.00 0.00 0.00 96 1014.9
20260510053046 49 126 0.0 0.0 0.00 0.00 0.00 97 1014.5
20260510050042 48 105 0.0 0.0 0.00 0.00 0.00 97 1014.2
20260510043039 48 156 0.0 0.0 0.00 0.00 0.00 97 1013.9
20260510040037 49 156 0.0 0.0 0.00 0.00 0.00 96 1013.5
20260510033035 49 174 0.0 0.0 0.00 0.20 0.20 96 1013.9
20260510030034 50 194 0.0 0.0 0.00 0.20 0.20 95 1013.9
20260510023032 50 192 0.0 0.0 0.00 0.20 0.20 94 1013.5
20260510020028 51 204 0.0 0.0 0.00 0.20 0.20 93 1013.5
20260510013027 52 162 0.0 0.0 0.00 0.20 0.20 93 1012.9
20260510010026 54 126 0.0 0.0 0.00 0.20 0.20 92 1012.5
20260510003024 56 180 0.0 0.0 0.00 0.20 0.20 89 1011.7
20260510000021 59 156 0.0 0.0 0.00 0.20 0.20 85 1012.1
20260509233021 62 215 1.0 1.0 0.00 0.20 0.20 78 1011.7
20260509230019 63 216 2.0 2.0 0.00 0.20 0.20 76 1012.1
20260509223015 64 210 0.0 0.0 0.00 0.20 0.20 72 1012.1
20260509220014 64 144 1.0 1.0 0.00 0.20 0.20 74 1012.1
20260509213011 63 223 0.0 0.0 0.00 0.20 0.20 77 1012.1
20260509210008 61 209 0.0 0.0 0.00 0.20 0.20 78 1012.5
20260509203003 60 228 0.0 0.0 0.00 0.20 0.20 78 1012.9
20260509200000 59 183 2.0 2.0 0.00 0.20 0.20 80 1012.9
20260509192956 58 235 0.0 0.0 0.00 0.20 0.20 80 1013.2
20260509185952 58 336 2.0 2.0 0.00 0.20 0.20 83 1012.9
20260509182949 59 272 2.0 2.0 0.00 0.20 0.20 81 1013.2
20260509175948 57 181 2.0 2.0 0.00 0.20 0.20 86 1013.5
20260509172947 57 222 0.0 0.0 0.00 0.20 0.20 86 1013.9
20260509165948 56 204 2.0 2.0 0.00 0.20 0.20 87 1014.5
20260509162943 55 204 3.0 3.0 0.00 0.20 0.20 91 1014.2
20260509155938 55 132 2.0 2.0 0.01 0.20 0.20 90 1013.9